NOAA 16 DEB, 41084

Orbit data source: Space-Track

NOAA 16 DEB, 41084 is space debris in LEO originally from a launch on Thu, 21 Sep 2000 UTC launched from the Air Force Western Test Range (AFWTR). Debris objects in space refer to the collection of defunct objects orbiting the Earth. Examples of debris include non-operational satellites, rocket bodies, and fragments generated from explosions, collisions, or faulty payload assembly.

Loading next visibility...
NOAA 16 DEB details
Identifier
41084, 2000-055AT
Orbit
LEO
Last TLE update14 hours ago
Origin
Flag of USNOAA (US)
ManufacturerUnknown
MissionSpacecraft
Bus & MotorUnknown
MassUnknown
Launch date (UTC)
2000-09-21 (24 years ago)
Launch vehicleUnknown
Launch site
Air Force Western Test Range (AFWTR)
Object type
Payload
Rocket body
Debris
Shape & HBRUnknown
Radar Cross SectionSmall (<0.1 m²)

Expand to show TLE details & history

TLE from 14 hours ago
0 NOAA 16 DEB
1 41084U 00055AT  24338.78240342  .00003518  00000-0  16296-2 0  9990
2 41084  98.7226  60.9832 0016358  47.2628 312.9922 14.21348126466481
Epoch: 2024-12-03T18:46Z
Definitive object data (Epoch: 2024-12-03T18:46:39.655Z)
Latitude-0.00012°
Longitude66.23102°
Altitude815.692 km
Speed7.45 km/s
True Right ascension04h 03m 55s
True Declination0° 00' 00"
Sunlit
Object was in full shadow at TLE epoch
Visualization TLE readout
Latitude49.09861°
Longitude56.64996°
Altitude816.754 km
Speed7.456 km/s
Apparent Right ascension22h 45m 19s
Apparent Declination20° 02' 14"
Sunlit
Object is in full shadow
Visualization observer readout
Local Sidereal Time06:25:41
Azimuth301.356° NW
Elevation-4.918°
Doppler factor1
Orbital elements
Apogee altitude829.726 km
Perigee altitude806.183 km
Semi-major axis7,196.092 km
Eccentricity0.0016358
Inclination98.7226°
RAAN60.9832°
Arg. of periapsis47.2628°
True anomaly312.8549°
Mean anomaly312.9922°
Eccentric anomaly312.92357°
Mean motion3.55548 °/min
BSTAR0.0016296
Orbital period101.25 mins
Loading maneuver chart data...
Loading historical data...
Loading historical data...
Loading historical data...
Loading historical data...
Loading historical data...
Loading historical data...
Loading historical data...

NOAA 16 DEB Visibility forecast

Observer location: undefined°, undefined

Span
Click to sort rows by Start time (UTC) header in descending order
Start Az.
Max El. time (UTC)
Max El. Az.
Max El.
End time (UTC)
End Az.
6 mins2024-12-04 17:21:33.343Z58.49° ENE2024-12-04 17:24:33.343Z96.823° ESE16.859°2024-12-04 17:27:33.343Z132.19° SE
9 mins2024-12-04 19:00:33.343Z1.372° NNE2024-12-04 19:04:33.343Z292.208° WNW39.6°2024-12-04 19:09:33.343Z212.103° SW
7 mins2024-12-05 04:43:33.343Z110.861° ESE2024-12-05 04:46:33.343Z62.399° ENE25.192°2024-12-05 04:50:33.343Z10.587° NNE
8 mins2024-12-05 06:22:33.343Z203.129° SW2024-12-05 06:26:33.343Z269.057° W29.895°2024-12-05 06:30:33.343Z325.33° NNW
|